Location: Newark
(41.0000°N, 28.9500°W)
Time: 01:58:14
(UTC+00:00)

N. Korean satellite - Pass Details

Date: 26 January 2020
Orbit: 456 x 505 km, 97.2° (Epoch: 21 February)

Event Time Altitude Azimuth Distance (km) Brightness Sun altitude
Rises 08:26:17 0° 359° (N) 2,541 10.0 -8.9°
Reaches altitude 10° 08:28:34 10° 346° (NNW) 1,667 9.0 -8.5°
Maximum altitude 08:31:33 25° 289° (WNW) 1,005 7.6 -8.0°
Drops below altitude 10° 08:34:35 10° 232° (SW) 1,679 9.0 -7.4°
Sets 08:36:53 0° 219° (SW) 2,564 10.0 -7.0°
